This is the latest recevied weather packets stored in our database for station/object OE-11049. If no packets are shown the sender has not sent any weather packets the latest 10 day(s).
| Time | Temp. | Humidity | Pressure | Rain* | Wind** | Luminosity | Snow |
|---|---|---|---|---|---|---|---|
| 1787887516 | 17.78° C | 83% | 1011.2 hPa | 0 mm | - | 0 W/m² | - |
| 1787886689 | 17.78° C | 82% | 1011.3 hPa | 0 mm | - | 0 W/m² | - |
| 1787886315 | 18.33° C | 81% | 1011.4 hPa | 0 mm | - | 0 W/m² | - |
| 1787885717 | 18.33° C | 81% | 1011.4 hPa | 0 mm | - | 0 W/m² | - |
| 1787884890 | 18.33° C | 79% | 1011.3 hPa | 0 mm | - | 0 W/m² | - |
| 1787884517 | 18.33° C | 79% | 1011.3 hPa | 0 mm | - | 0 W/m² | - |
| 1787883917 | 18.33° C | 80% | 1011.4 hPa | 0 mm | - | 0 W/m² | - |
| 1787883090 | 18.33° C | 80% | 1011.3 hPa | 0 mm | - | 0 W/m² | - |
| 1787882717 | 18.89° C | 78% | 1011.2 hPa | 0 mm | - | 0 W/m² | - |
| 1787882114 | 18.89° C | 78% | 1011.2 hPa | 0 mm | - | 0 W/m² | - |
| 1787881290 | 19.44° C | 76% | 1011.1 hPa | 0 mm | - | 0 W/m² | - |
| 1787880917 | 18.89° C | 77% | 1011 hPa | 0 mm | - | 0 W/m² | - |
| 1787880317 | 19.44° C | 77% | 1011.1 hPa | 0 mm | - | 0 W/m² | - |
| 1787879489 | 19.44° C | 77% | 1011.1 hPa | 0 mm | - | 0 W/m² | - |
| 1787879116 | 20° C | 74% | 1011 hPa | 0 mm | - | 0 W/m² | - |
| 1787878517 | 20° C | 74% | 1011 hPa | 0 mm | - | 0 W/m² | - |
| 1787877689 | 19.44° C | 75% | 1011 hPa | 0 mm | - | 0 W/m² | - |
| 1787877317 | 20° C | 74% | 1011.1 hPa | 0 mm | - | 0 W/m² | - |
| 1787876717 | 20° C | 74% | 1010.9 hPa | 0 mm | - | 0 W/m² | - |
| 1787875889 | 20° C | 75% | 1011.1 hPa | 0 mm | - | 0 W/m² | - |
| 1787875516 | 20° C | 75% | 1011.1 hPa | 0 mm | - | 0 W/m² | - |
| 1787874917 | 20° C | 74% | 1011.1 hPa | 0 mm | - | 0 W/m² | - |
| 1787874089 | 20° C | 74% | 1011.2 hPa | 0 mm | - | 0 W/m² | - |
| 1787873717 | 20.56° C | 74% | 1011.2 hPa | 0 mm | - | 0 W/m² | - |
| 1787873116 | 20.56° C | 73% | 1011.2 hPa | 0 mm | - | 0 W/m² | - |
* Rain latest hour (hover to see other rain measurements)
** Current wind speed in m/s (hover to see current wind gust speed)